Location: Holiday Acres Laynes 2 Mobile Home Park
(26.7249°N, 81.8671°W)
Time: 14:19:51
(UTC+00:00)

Cosmos 2154 Rocket - Visible Passes

Search period start: 20 April 2021 00:00
Search period end: 30 April 2021 00:00
Orbit: 967 x 996 km, 82.9° (Epoch: 19 April)

Date Brightness Start Highest point End Pass type
(mag) Time Alt. Az. Time Alt. Az. Time Alt. Az.
22 Apr 6.8 05:36:08 10° N 05:36:20 11° N 05:36:20 11° N visible
23 Apr 6.7 06:03:10 10° NNW 06:03:18 11° NNW 06:03:18 11° NNW visible
25 Apr 6.7 05:12:04 10° N 05:12:30 12° N 05:12:30 12° N visible
26 Apr 6.7 05:39:03 10° N 05:39:30 12° N 05:39:30 12° N visible
28 Apr 6.6 04:48:01 10° N 04:48:44 14° N 04:48:44 14° N visible
29 Apr 6.5 05:14:57 10° N 05:15:46 14° N 05:15:46 14° N visible
